Jackson, MI

9:36 AM EDT on October 21, 2019 (GMT -0400)
Jackson County-Reynolds

Weather History for KJXN - July, 2019

Change the Weather History Date:

Friday, July 26, 2019

  Actual Average Record
Temperature  
Mean Temperature 72 °F 71 °F  
Max Temperature 84 °F 82 °F 96 °F (1966)
Min Temperature 59 °F 60 °F 48 °F (1962)
Degree Days  
Heating Degree Days 0 0  
Month to date heating degree days 1  
Since 1 June heating degree days 56  
Since 1 July heating degree days 1  
Cooling Degree Days 6 6  
Month to date cooling degree days 174  
Year to date cooling degree days 337  
Since 1 June cooling degree days 300  
Growing Degree Days 22 (Base 50)    
Moisture  
Dew Point 61 °F    
Average Humidity 70    
Maximum Humidity 100    
Minimum Humidity 43    
Precipitation  
Precipitation 0.00 in 0.12 in 1.33 in (2002)
Month to date precipitation 2.95  
Year to date precipitation 16.82  
Sea Level Pressure  
Sea Level Pressure 30.22 in    
Wind  
Wind Speed 3 mph (South)    
Max Wind Speed 13 mph    
Max Gust Speed 18 mph    
Visibility 10 miles    
Events      
T = Trace of Precipitation, MM = Missing Value Source: NWS Daily Summary

Daily Weather History Graph

Daily Weather History Graph

Search for Another Location

Airport or City:

Astronomy

Jul. 26, 2019 Rise Set
Actual Time 6:24 AM EDT 9:03 PM EDT
Civil Twilight 5:52 AM EDT 9:35 PM EDT
Nautical Twilight 5:11 AM EDT 10:16 PM EDT
Astronomical Twilight 4:25 AM EDT 11:02 PM EDT
Moon 1:39 AM EDT (7/26) 3:46 PM EDT (7/26)
Length of Visible Light 15h 43m
Length of Day
14h 39m
Waning Crescent, 34% of the Moon is Illuminated
Jul 26
Waning Crescent
Jul 31
New
Aug 7
First Quarter
Aug 15
Full
Aug 23
Last Quarter

Hourly Weather History & Observations

Time (EDT) Temp. Heat Index Dew Point Humidity Pressure Visibility Wind Dir Wind Speed Gust Speed Precip Events Conditions
12:56 AM 66.0 °F - 63.0 °F 90% 30.22 in 10.0 mi Calm Calm - N/A   Clear
1:56 AM 64.0 °F - 62.1 °F 93% 30.22 in 10.0 mi Calm Calm - N/A   Clear
2:56 AM 63.0 °F - 62.1 °F 97% 30.21 in 10.0 mi Calm Calm - N/A   Clear
3:56 AM 62.1 °F - 61.0 °F 96% 30.22 in 10.0 mi Calm Calm - N/A   Clear
4:56 AM 59.0 °F - 59.0 °F 100% 30.22 in 4.0 mi Calm Calm - N/A   Clear
5:56 AM 61.0 °F - 60.1 °F 97% 30.22 in 10.0 mi Calm Calm - N/A   Clear
6:56 AM 61.0 °F - 60.1 °F 97% 30.24 in 10.0 mi Calm Calm - N/A   Clear
7:56 AM 64.0 °F - 61.0 °F 90% 30.25 in 10.0 mi Calm Calm - N/A   Clear
8:56 AM 70.0 °F - 63.0 °F 78% 30.26 in 10.0 mi SW 4.6 mph - N/A   Clear
9:56 AM 75.9 °F - 60.1 °F 58% 30.27 in 10.0 mi South 8.1 mph - N/A   Clear
10:56 AM 79.0 °F - 59.0 °F 50% 30.27 in 10.0 mi South 9.2 mph - N/A   Clear
11:56 AM 81.0 °F 81.3 °F 59.0 °F 47% 30.27 in 10.0 mi SSW 9.2 mph - N/A   Clear
12:56 PM 82.9 °F 82.8 °F 59.0 °F 44% 30.26 in 10.0 mi SSE 11.5 mph - N/A   Partly Cloudy
1:56 PM 81.0 °F 81.3 °F 59.0 °F 47% 30.25 in 10.0 mi Variable 5.8 mph - N/A   Mostly Cloudy
2:56 PM 82.0 °F 82.4 °F 60.1 °F 47% 30.23 in 10.0 mi SSW 11.5 mph - N/A   Scattered Clouds
3:56 PM 82.0 °F 82.1 °F 59.0 °F 45% 30.22 in 10.0 mi South 6.9 mph - N/A   Clear
4:56 PM 84.0 °F 83.8 °F 59.0 °F 43% 30.21 in 10.0 mi South 12.7 mph 18.4 mph N/A   Scattered Clouds
5:56 PM 82.0 °F 82.4 °F 60.1 °F 47% 30.19 in 10.0 mi SSW 9.2 mph - N/A   Clear
6:56 PM 79.0 °F - 61.0 °F 54% 30.19 in 10.0 mi SW 8.1 mph - N/A   Clear
7:56 PM 77.0 °F - 63.0 °F 62% 30.20 in 10.0 mi SSW 4.6 mph - N/A   Clear
8:56 PM 75.0 °F - 62.1 °F 64% 30.19 in 10.0 mi South 4.6 mph - N/A   Clear
9:56 PM 72.0 °F - 62.1 °F 71% 30.19 in 10.0 mi SSE 4.6 mph - N/A   Clear
10:56 PM 70.0 °F - 63.0 °F 78% 30.19 in 10.0 mi SSE 6.9 mph - N/A   Clear
11:56 PM 70.0 °F - 63.0 °F 78% 30.19 in 10.0 mi SSE 6.9 mph - N/A   Clear